Starlink 34145

operational
NORAD ID: 64110 Int'l Des: 2025-110 Owner: SPXS Country: US Constellation: starlink
LEOCIRCULAR

关于 Starlink 34145

正在加载描述...

实时位置

正在加载3D地球...

即将过境

高度历史

Altitude vs Time

uPlot chart will show altitude changes over time

两行轨道根数

1 64110U 25110Q 25261.00003472 .00069040 00000-0 17226-2 0 9992
2 64110 53.1580 112.3765 0001063 95.0499 272.8967 15.39580822 5804
Epoch: Sep 18, 2025 • Age: 26 hours

当前状态

高度 460.4 km
速度 7.64 km/s
星下点 -39.62°S, 61.34°W
发射日期 May 23, 2025
运行时间 0.3 years
类型 internet

技术详情

分类 Payload
质量 575.00 kg
干质量 530.00 kg
总质量 575.00 kg
长度 0.30 m
直径 4.10 m
跨度 29.00 m
形状 Box + pan
制造商 SPXS
平台类型 Starlink V2MO
阶段状态 In Orbit
所有者/国家 SPXS/US

大型星座

Loading constellations...